Date,TemperatureHighF,TemperatureAvgF,TemperatureLowF,DewpointHighF,DewpointAvgF,DewpointLowF,HumidityHigh,HumidityAvg,HumidityLow,PressureMaxIn,PressureMinIn,WindSpeedMaxMPH,WindSpeedAvgMPH,GustSpeedMaxMPH,PrecipitationSumIn
2013-2-1,16,14,10,13,10,7,91,87,79,30.11,29.85,17,5,17,0.00
2013-2-2,15,8,1,8,4,-2,89,84,68,30.08,30.04,10,2,10,0.01
2013-2-3,18,10,-1,14,6,-5,90,85,78,30.04,29.82,17,3,18,0.00
2013-2-4,16,6,-10,8,2,-15,88,81,58,30.01,29.94,11,2,12,0.00
2013-2-5,22,12,-6,19,8,-9,90,86,81,30.01,29.69,18,4,20,0.00
2013-2-6,24,13,-5,19,9,-9,91,85,70,30.26,30.01,16,3,16,0.00
2013-2-7,25,20,17,23,18,14,93,91,89,30.25,30.14,23,8,23,0.00
2013-2-8,23,15,-3,17,11,-7,92,83,70,30.42,30.15,20,5,20,0.00
2013-2-9,28,10,-8,19,5,-12,90,80,58,30.45,30.23,9,2,9,0.00
2013-2-10,34,28,21,32,23,16,95,82,72,30.23,29.52,23,5,23,0.00
2013-2-11,38,33,25,36,31,21,96,93,85,29.75,29.34,26,6,26,0.00
2013-2-12,28,26,24,23,21,20,90,83,73,29.94,29.75,19,5,20,0.00
2013-2-13,35,31,27,30,27,22,94,86,81,29.82,29.66,21,4,21,0.01
2013-2-14,35,32,27,33,30,26,95,93,88,29.75,29.59,19,3,19,0.07
2013-2-15,23,18,13,18,13,8,90,81,70,30.14,29.91,17,5,19,0.00
2013-2-16,17,8,-3,10,3,-7,90,81,64,30.18,30.07,13,3,15,0.00
2013-2-17,21,12,1,11,5,-3,90,76,51,30.22,30.12,12,2,12,0.00
2013-2-18,36,26,14,32,18,8,94,72,58,30.13,29.44,21,7,22,0.13
2013-2-19,37,26,13,36,24,8,96,92,82,29.84,29.14,28,10,29,0.15
2013-2-20,16,12,9,12,7,4,85,80,72,30.33,29.84,21,8,21,0.00
2013-2-21,20,13,9,12,8,6,90,81,67,30.49,30.33,22,4,23,0.00
2013-2-22,29,25,15,27,23,12,93,90,88,30.36,29.82,32,8,32,0.00
2013-2-23,32,27,20,28,25,18,95,91,81,29.84,29.75,10,2,10,0.09
2013-2-24,34,26,15,29,23,13,95,90,79,30.15,29.83,12,2,12,0.03
2013-2-25,36,30,26,28,26,24,92,83,65,30.20,30.13,11,2,11,0.00
2013-2-26,34,30,23,28,25,19,89,80,74,30.19,29.81,32,9,34,0.00
2013-2-27,34,32,30,32,29,26,95,91,81,29.81,29.68,28,10,30,0.00
2013-2-28,32,29,20,31,23,13,94,80,66,30.12,29.72,19,7,19,0.00